CZ-3C DEB, 40816

Orbit data source: Space-Track

CZ-3C DEB, 40816 is space debris in HEO originally from a launch on Sun, 31 Oct 2010 UTC launched from the Xichang Space Center, China (XSC). Debris objects in space refer to the collection of defunct objects orbiting the Earth. Examples of debris include non-operational satellites, rocket bodies, and fragments generated from explosions, collisions, or faulty payload assembly.

Loading next visibility...
Identifier
40816, 2010-057AH
Orbit
HEO
Last TLE update
8 months ago
Origin
Manufacturer
CALT
Mission
Spacecraft
Bus & Motor
Unknown
Mass
Unknown
Launch date (UTC)
2010-10-31 (15 years ago)
Launch vehicle
Unknown
Launch site
Xichang Space Center, China (XSC)
Object type
Payload
Rocket body
Debris
Shape & HBR
Unknown
Radar Cross Section
Small (<0.1 m²)

Expand to show TLE details & history

TLE from 8 months ago
0 CZ-3C DEB
1 40816U 10057AH  24298.43136527 -.00000069  00000-0 -64025-4 0  9996
2 40816  19.7804 245.1152 7117488 261.2264  19.5039  2.29515110 85915
Epoch: 2024-10-24T10:21Z
TLE epoch observation values (Epoch: 2024-10-24T10:21:09.959Z)
Latitude
-0.00014°
Longitude
56.42022°
Altitude
7,053.72 km
Speed
6.552 km/s
True Right ascension
16h 20m 06s
True Declination
0° 00' 00"
Sunlit
Object was in daylight at epoch
Visualization orbit readout
Latitude
-9.76671°
Longitude
170.89122°
Altitude
20,120.767 km
Speed
3.697 km/s
Apparent Right ascension
23h 41m 40s
Apparent Declination
-15° 38' 07"
Sunlit
Object is in daylight
Visualization observer readout
Local Sidereal Time
10:12:29
Azimuth
314.975° NW
Elevation
-58.907°
Doppler factor
1
Orbital elements
Apogee altitude
35,185.369 km
Perigee altitude
620.98 km
Semi-major axis
24,281.311 km
Eccentricity
0.71175
Inclination
19.7804°
RAAN
245.1152°
Arg. of periapsis
261.2264°
True anomaly
Unknown
Mean anomaly
19.5039°
Eccentric anomaly
Unknown
Mean motion
0.57363 °/min
Orbital period
627.58 mins
BSTAR
-0.000064025
Loading maneuver chart data...
Loading SW <> Apogee altitude chart data...
Loading historical data...
Loading historical data...
Loading historical data...
Loading historical data...
Loading historical data...
Loading historical data...
Loading historical data...

CZ-3C DEB Visibility forecast

Observer location: undefined°, undefined°

Span
Click to sort rows by Start time (UTC) header in descending order
Start Az.
Max El. time (UTC)
Max El. Az.
Max El.
End time (UTC)
End Az.
70 mins2025-07-06 07:14:19.511Z224.151° SW2025-07-06 07:23:19.511Z170.879° S24.188°2025-07-06 08:24:19.511Z126.558° SE
341 mins2025-07-06 10:39:19.511Z133.027° SE2025-07-06 14:22:19.511Z153.874° SSE16.048°2025-07-06 16:20:19.511Z147.267° SSE
|